[[{"header":{"parameterUnit":"m.s-1","parameterCategory":1,"la1":30.2991,"la2":30.254,"lo1":-89.0895,"lo2":-89.0444,"dy":0.0017,"dx":0.0017,"nx":28,"ny":28,"refTime":"2024-11-29T09:00:00:Z","depth":0,"parameterNumber":2,"parameterNumberName":"U-component_of_WINDS"},"data":[0,0,0,0,0,0,0,0,0,0,0,0,0,0,0,0,0,0,0,0,0,0,0,0,0,0,0,0,0,0,0,0,0,0,0,0,0,0,0,0,0,0,0,0,0,0,0,0,0,0,0,0,0,0,0,0,0,0,-1.8528,-1.8529,0,-1.8624,-1.8625,-1.8626,-1.8588,-1.8586,-1.8583,-1.8581,-1.868,-1.8684,-1.8689,0,0,0,0,0,0,0,0,0,0,0,0,0,-1.8314,-1.8318,-1.8528,-1.853,-1.8531,-1.8623,-1.8625,-1.8626,-1.8588,-1.8585,-1.8583,-1.858,-1.8678,-1.8684,-1.8689,0,0,0,0,0,0,0,0,0,0,0,0,0,-1.8408,-1.8319,-1.8528,-1.8523,-1.8523,-1.8623,-1.8625,-1.8626,-1.8589,-1.8585,-1.8582,-1.8579,-1.8676,-1.8683,-1.869,-1.8801,0,0,-1.8712,-1.8715,0,0,0,0,0,0,0,0,-1.8402,-1.8416,-1.8523,-1.8524,-1.8524,-1.859,-1.8585,-1.8685,-1.859,-1.8564,-1.8581,-1.8577,-1.8653,-1.8661,-1.8687,-1.8805,-1.8809,-1.8712,-1.8716,-1.8719,-1.8721,0,0,0,0,0,0,0,-1.8396,-1.8411,-1.8566,-1.8524,-1.8525,-1.8516,-1.8526,-1.8604,-1.8626,-1.8566,-1.8563,-1.8575,-1.8652,-1.868,-1.8689,-1.8811,-1.8712,-1.8718,-1.8723,-1.8725,-1.9025,-1.9028,0,0,0,0,0,0,-1.8389,-1.8406,-1.8563,-1.8569,-1.8454,-1.8522,-1.8533,-1.8573,-1.8625,-1.863,-1.8578,-1.8573,-1.867,-1.8681,-1.8692,-1.8826,-1.8719,-1.8726,-1.873,-1.9021,-1.9025,-1.9029,0,0,0,0,0,0,-1.8385,-1.8404,-1.8559,-1.8487,-1.8506,-1.853,-1.8574,-1.8576,-1.8604,-1.8634,-1.8638,-1.8602,-1.8667,-1.8682,-1.8774,-1.8828,-1.8729,-1.8736,-1.9017,-1.9022,-1.9027,-1.9093,0,0,0,0,0,0,-1.8379,-1.8402,-1.8445,-1.8488,-1.851,-1.864,-1.8577,-1.858,-1.8616,-1.861,-1.8658,-1.8662,-1.8666,-1.8763,-1.8781,-1.8836,-1.8741,-1.9012,-1.9019,-1.9026,-1.9086,-1.91,-1.9112,0,0,0,0,0,-1.8371,-1.846,-1.8447,-1.8466,-1.8564,-1.8643,-1.8655,-1.8658,-1.862,-1.8663,-1.8683,-1.8661,-1.8819,-1.8773,-1.8792,-1.8851,-1.9008,-1.9017,-1.9025,-1.908,-1.9097,-1.9112,0,0,0,0,0,0,-1.8423,-1.8465,-1.8452,-1.8557,-1.8597,-1.8636,-1.8691,-1.8676,-1.8727,-1.872,-1.872,-1.8731,-1.8826,-1.8847,-1.8795,-1.896,-1.8908,-1.8921,-1.8944,-1.896,-1.8973,-1.8967,-1.8747,0,0,0,0,0,-1.8446,-1.8507,-1.8541,-1.863,-1.8651,-1.8667,-1.8702,-1.87,-1.8741,-1.8758,-1.8784,-1.8825,-1.8884,-1.8923,-1.8978,-1.9088,-1.9098,-1.9138,-1.9151,-1.9161,-1.9173,-1.9232,-1.9251,-1.9057,-1.9057,-1.9057,0,0,-1.8495,-1.8526,-1.8565,-1.8641,-1.8672,-1.8735,-1.8682,-1.8751,-1.8798,-1.8768,-1.8857,-1.8877,-1.8923,-1.9024,-1.907,-1.9045,-1.9228,-1.9172,-1.918,-1.9186,-1.9243,-1.9261,-1.9277,-1.9063,-1.9062,-1.9061,0,0,-1.8618,-1.8647,-1.8725,-1.8756,-1.8803,-1.8813,-1.8831,-1.8874,-1.8886,-1.8974,-1.8954,-1.9009,-1.911,-1.9144,-1.9174,-1.9307,-1.929,-1.9325,-1.9394,-1.9452,-1.9468,-1.9481,-1.953,-1.9547,-1.9336,-1.9336,-1.9337,0,-1.8674,-1.8768,-1.8767,-1.8838,-1.8872,-1.8847,-1.8926,-1.8956,-1.9019,-1.9043,-1.9014,-1.914,-1.9169,-1.9278,-1.931,-1.9335,-1.9357,-1.9321,-1.9465,-1.9479,-1.9492,-1.9538,-1.9556,-1.9341,-1.934,-1.934,-1.9339,0,-1.8835,-1.89,-1.8957,-1.9018,-1.9059,-1.9133,-1.9143,-1.9184,-1.9178,-1.9191,-1.9281,-1.9315,-1.9377,-1.9402,-1.9397,-1.951,-1.9493,-1.9465,-1.9413,-1.9514,-1.9558,-1.9576,-1.9347,-1.9345,-1.9344,-1.9343,0,0,-1.8995,-1.9053,-1.9074,-1.9101,-1.915,-1.9201,-1.9273,-1.9334,-1.9369,-1.9412,-1.9474,-1.9559,-1.9533,-1.9567,-1.9565,-1.9616,-1.9721,-1.9581,-1.9582,-1.9607,-1.9848,-1.9871,-1.9891,-1.9708,-1.9711,-1.9714,-1.9845,0,-1.9122,-1.9251,-1.9251,-1.9369,-1.943,-1.9406,-1.947,-1.9506,-1.952,-1.9573,-1.9588,-1.9649,-1.9609,-1.963,-1.9679,-1.9698,-1.9769,-1.9688,-1.9766,-1.9769,-1.9757,-1.9914,-1.9938,-2.006,-1.9862,-1.9864,-1.9867,0,-1.9289,-1.9337,-1.9462,-1.9501,-1.9526,-1.9584,-1.9639,-1.969,-1.973,-1.9737,-1.9774,-1.9764,-1.9838,-1.9782,-1.9884,-1.9829,-1.986,-1.9874,-1.9879,-1.9888,-1.9825,-1.9929,-2.0099,-2.0118,-1.9893,-1.9891,-1.9889,0,-1.9395,-1.9491,-1.9578,-1.9601,-1.9649,-1.969,-1.9712,-1.9749,-1.9785,-1.9833,-1.9856,-1.9912,-1.9943,-1.9986,-1.9991,-1.995,-2.0094,-2.0038,-2.0102,-2.0102,-2.0136,-2.0134,-2.0315,-2.0153,-2.0153,-2.0152,-2.0152,0,-1.9538,-1.9616,-1.9626,-1.968,-1.9765,-1.9764,-1.9849,-1.9867,-1.99,-1.9957,-1.9939,-1.9993,-1.9995,-2.005,-2.0054,-2.0138,-2.0152,-2.0159,-2.016,-2.0162,-2.0162,-2.0185,-2.0177,-2.0157,-2.0156,-2.0155,-2.0154,0,-1.9672,-1.9682,-1.9775,-1.9812,-1.9823,-1.9885,-1.9917,-1.9968,-1.9979,-2.0051,-2.0068,-2.0085,-2.0149,-2.0157,-2.0231,-2.0234,-2.0336,-2.0327,-2.0323,-2.0322,-2.0386,-2.038,-2.059,-2.0618,-2.0436,-2.0437,-2.0439,0,-1.9764,-1.9823,-1.9866,-1.9903,-1.9927,-1.9986,-2.0022,-2.0023,-2.0061,-2.0111,-2.0157,-2.0218,-2.0267,-2.037,-2.0389,-2.0446,-2.0439,-2.0508,-2.0447,-2.0447,-2.0441,-2.0439,-2.0445,-2.0521,-2.0523,-2.0524,-2.0525,0,-1.9927,-1.9928,-1.9982,-2.0037,-2.0081,-2.0124,-2.0165,-2.0195,-2.0201,-2.0245,-2.031,-2.0348,-2.0423,-2.0485,-2.054,-2.0562,-2.0546,-2.0544,-2.0562,-2.0566,-2.0562,-2.0566,-2.0357,-2.054,-2.0538,-2.0537,-2.0537,-2.0536,-2.0044,-2.0095,-2.0133,-2.0193,-2.0223,-2.0262,-2.0311,-2.0328,-2.0382,-2.0443,-2.044,-2.0511,-2.0549,-2.0622,-2.0647,-2.0703,-2.068,-2.0706,-2.0713,-2.072,-2.0727,-2.0551,-2.0713,-2.0712,-2.0712,-2.0712,-2.0711,0,-2.0207,-2.023,-2.0284,-2.0342,-2.0389,-2.0367,-2.0411,-2.0452,-2.0514,-2.0551,-2.06,-2.0674,-2.0733,-2.0756,-2.0814,-2.0854,-2.0847,-2.0869,-2.0867,-2.0873,-2.0743,-2.0723,-2.0873,-2.0873,-2.0873,-2.0873,-2.0873,-2.0873,-2.0297,-2.0383,-2.0389,-2.0489,-2.0511,-2.0581,-2.0608,-2.0643,-2.0672,-2.0755,-2.0804,-2.0819,-2.085,-2.091,-2.0963,-2.0968,-2.0991,-2.1016,-2.1018,-2.0898,-2.0882,-2.0866,-2.0847,-2.1021,-2.1021,-2.1143,-2.1144,-2.1145]},{"header":{"parameterUnit":"m.s-1","parameterCategory":1,"la1":30.2991,"la2":30.254,"lo1":-89.0895,"lo2":-89.0444,"dy":0.0017,"dx":0.0017,"nx":28,"ny":28,"refTime":"2024-11-29T09:00:00:Z","depth":0,"parameterNumber":3,"parameterNumberName":"V-component_of_WINDS"},"data":[0,0,0,0,0,0,0,0,0,0,0,0,0,0,0,0,0,0,0,0,0,0,0,0,0,0,0,0,0,0,0,0,0,0,0,0,0,0,0,0,0,0,0,0,0,0,0,0,0,0,0,0,0,0,0,0,0,0,-7.9185,-7.9186,0,-7.9285,-7.9286,-7.9287,-7.9183,-7.9179,-7.9175,-7.9171,-7.9268,-7.9274,-7.928,0,0,0,0,0,0,0,0,0,0,0,0,0,-7.8896,-7.8902,-7.9185,-7.9186,-7.9187,-7.9285,-7.9286,-7.9288,-7.9183,-7.9178,-7.9174,-7.9169,-7.9266,-7.9273,-7.9281,0,0,0,0,0,0,0,0,0,0,0,0,0,-7.9012,-7.8904,-7.9184,-7.9147,-7.9145,-7.9285,-7.9286,-7.9288,-7.9184,-7.9178,-7.9172,-7.9167,-7.9263,-7.9273,-7.9282,-7.9462,0,0,-7.9311,-7.9315,0,0,0,0,0,0,0,0,-7.9005,-7.9022,-7.9151,-7.915,-7.9147,-7.9215,-7.922,-7.9346,-7.9186,-7.9169,-7.9171,-7.9164,-7.9255,-7.9265,-7.9297,-7.9467,-7.9471,-7.9312,-7.9318,-7.9322,-7.9325,0,0,0,0,0,0,0,-7.8997,-7.9017,-7.9224,-7.9153,-7.9151,-7.9123,-7.9133,-7.9244,-7.9245,-7.917,-7.9163,-7.9176,-7.9253,-7.9288,-7.9298,-7.9472,-7.9312,-7.932,-7.9326,-7.933,-7.9794,-7.98,0,0,0,0,0,0,-7.8994,-7.9011,-7.9221,-7.9227,-7.906,-7.9133,-7.9144,-7.9199,-7.9243,-7.9244,-7.9181,-7.9171,-7.9275,-7.9287,-7.9301,-7.9515,-7.9322,-7.9331,-7.9336,-7.9787,-7.9795,-7.9803,0,0,0,0,0,0,-7.8989,-7.9014,-7.9217,-7.9117,-7.9141,-7.9145,-7.9208,-7.9205,-7.924,-7.9252,-7.9251,-7.9218,-7.927,-7.9288,-7.9423,-7.9517,-7.9335,-7.9344,-7.978,-7.979,-7.9799,-7.9944,0,0,0,0,0,0,-7.8981,-7.9013,-7.9083,-7.912,-7.9147,-7.9339,-7.9214,-7.9211,-7.9257,-7.9245,-7.9285,-7.9286,-7.9267,-7.941,-7.9433,-7.9527,-7.9351,-7.9771,-7.9784,-7.9796,-7.9931,-7.9957,-7.998,0,0,0,0,0,-7.8971,-7.9118,-7.9087,-7.9112,-7.9235,-7.9345,-7.936,-7.9336,-7.9265,-7.9335,-7.9342,-7.9285,-7.9503,-7.9424,-7.9449,-7.9548,-7.9765,-7.9781,-7.9795,-7.9919,-7.9952,-7.998,0,0,0,0,0,0,-7.9089,-7.9122,-7.9088,-7.9252,-7.9297,-7.9327,-7.9414,-7.9372,-7.9436,-7.9422,-7.9387,-7.9397,-7.9541,-7.9557,-7.9469,-7.9724,-7.9622,-7.9643,-7.9708,-7.9739,-7.9764,-7.9757,-7.9359,0,0,0,0,0,-7.9135,-7.9224,-7.9247,-7.9389,-7.9414,-7.9411,-7.9458,-7.9436,-7.948,-7.9498,-7.9515,-7.9559,-7.9636,-7.9688,-7.9761,-7.9932,-7.9939,-8.0012,-8.0037,-8.0057,-8.0075,-8.0167,-8.0199,-7.9851,-7.9851,-7.9851,0,0,-7.923,-7.9258,-7.9316,-7.9414,-7.9446,-7.9537,-7.9427,-7.9528,-7.9595,-7.9512,-7.9642,-7.9656,-7.9702,-7.9856,-7.9925,-7.9874,-8.0173,-8.0076,-8.0092,-8.0099,-8.0185,-8.0218,-8.0247,-7.9862,-7.986,-7.9858,0,0,-7.9449,-7.948,-7.9602,-7.9637,-7.9688,-7.9685,-7.9714,-7.9751,-7.9758,-7.9888,-7.9828,-7.9906,-8.0041,-8.0077,-8.0112,-8.0345,-8.0294,-8.0369,-8.0499,-8.0588,-8.0616,-8.064,-8.0722,-8.0753,-8.0387,-8.0388,-8.0388,0,-7.9559,-7.9696,-7.967,-7.9776,-7.982,-7.9751,-7.9874,-7.9908,-7.9979,-8.0011,-7.9953,-8.0122,-8.0148,-8.0309,-8.0366,-8.0398,-8.0429,-8.0364,-8.0614,-8.0638,-8.066,-8.0739,-8.077,-8.0396,-8.0395,-8.0394,-8.0394,0,-7.9829,-7.9925,-8.0017,-8.0091,-8.0145,-8.0258,-8.0247,-8.0305,-8.0278,-8.0281,-8.0413,-8.0442,-8.0519,-8.0556,-8.053,-8.0714,-8.0681,-8.062,-8.0517,-8.0703,-8.0776,-8.0806,-8.0409,-8.0406,-8.0403,-8.0401,0,0,-8.0126,-8.0184,-8.0218,-8.025,-8.0301,-8.0374,-8.0483,-8.0561,-8.0611,-8.0662,-8.0752,-8.0869,-8.0813,-8.0853,-8.083,-8.0909,-8.1091,-8.0838,-8.0838,-8.0884,-8.1295,-8.1341,-8.1376,-8.1058,-8.1063,-8.1068,-8.1291,0,-8.0346,-8.054,-8.0519,-8.0702,-8.079,-8.0726,-8.0821,-8.0862,-8.0867,-8.094,-8.0944,-8.1028,-8.0947,-8.0971,-8.1046,-8.1053,-8.1173,-8.1037,-8.114,-8.1144,-8.1131,-8.1415,-8.1464,-8.1673,-8.1319,-8.1324,-8.1328,0,-8.063,-8.0693,-8.0886,-8.0924,-8.096,-8.1047,-8.1116,-8.1187,-8.1231,-8.1229,-8.1275,-8.1238,-8.1346,-8.1242,-8.139,-8.1298,-8.1338,-8.1348,-8.1356,-8.1364,-8.1248,-8.1431,-8.1739,-8.177,-8.1372,-8.1369,-8.1366,0,-8.0827,-8.096,-8.1093,-8.1123,-8.117,-8.1232,-8.1254,-8.1293,-8.1341,-8.14,-8.1431,-8.1501,-8.154,-8.1595,-8.1578,-8.1503,-8.1729,-8.1623,-8.173,-8.173,-8.178,-8.1777,-8.2099,-8.1807,-8.1806,-8.1806,-8.1805,0,-8.1075,-8.1196,-8.1183,-8.1264,-8.1397,-8.1371,-8.1502,-8.1516,-8.155,-8.1632,-8.158,-8.1657,-8.163,-8.1705,-8.1692,-8.1816,-8.1834,-8.1834,-8.1829,-8.1839,-8.1839,-8.1865,-8.185,-8.1814,-8.1812,-8.1811,-8.1809,0,-8.1318,-8.1315,-8.1455,-8.1489,-8.15,-8.1596,-8.1624,-8.17,-8.1701,-8.1805,-8.1827,-8.1828,-8.1914,-8.1903,-8.1997,-8.1988,-8.2143,-8.2121,-8.213,-8.2124,-8.2232,-8.2222,-8.2582,-8.2627,-8.2305,-8.2309,-8.2311,0,-8.1478,-8.1569,-8.1613,-8.1666,-8.1693,-8.1777,-8.1826,-8.1804,-8.1856,-8.1914,-8.1982,-8.2064,-8.2128,-8.2268,-8.2276,-8.2348,-8.2326,-8.2447,-8.2337,-8.2344,-8.2328,-8.2323,-8.2332,-8.2469,-8.2473,-8.2476,-8.2478,0,-8.176,-8.1754,-8.1828,-8.1902,-8.1963,-8.2019,-8.207,-8.2115,-8.2097,-8.2158,-8.2247,-8.2297,-8.2395,-8.2476,-8.2544,-8.2564,-8.2519,-8.2513,-8.2542,-8.2553,-8.2555,-8.2555,-8.2189,-8.2505,-8.2502,-8.2501,-8.2499,-8.2498,-8.1966,-8.2045,-8.2089,-8.2172,-8.2209,-8.2258,-8.2331,-8.2341,-8.2415,-8.2495,-8.2476,-8.2576,-8.2616,-8.2703,-8.2731,-8.2807,-8.2762,-8.2803,-8.2814,-8.2825,-8.2837,-8.2543,-8.2819,-8.2818,-8.2817,-8.2817,-8.2816,0,-8.2246,-8.2272,-8.2349,-8.2423,-8.2489,-8.2442,-8.2496,-8.2554,-8.2643,-8.2685,-8.275,-8.2851,-8.293,-8.2944,-8.3018,-8.3077,-8.3057,-8.3097,-8.3092,-8.3098,-8.2873,-8.2841,-8.3111,-8.3111,-8.3111,-8.3111,-8.3111,-8.3111,-8.24,-8.253,-8.2529,-8.2676,-8.2699,-8.2799,-8.2834,-8.2878,-8.2912,-8.3028,-8.3094,-8.3103,-8.3134,-8.321,-8.3279,-8.3281,-8.3311,-8.3359,-8.3353,-8.3143,-8.3113,-8.3085,-8.3055,-8.3365,-8.3366,-8.357,-8.3572,-8.3574]}]]